Find STARLINK-37567

NORAD ID: 70568 Constellation: starlink operational
LEOCIRCULARRETROGRADE

实时位置

正在加载3D地球...

关于 STARLINK-37567

正在加载描述...

即将过境

Passes for default location (London). Set your location on the main map for personalized predictions.

高度历史

Loading altitude history...

两行轨道根数

1 70568C 26097J 26121.88659722 -.00569020 00000+0 -83199-3 0 1212
2 70568 97.2856 316.5479 0008022 256.7658 25.8996 16.05371131 19
Epoch: May 1, 2026 • Age: 31 hours